User: anonymous   Login
Location: Aalen
(48.8330°N, 10.1000°E)
Time: 08:11:47
(UTC+02:00)
Language:

A-11 Canister half - Orbit

View from above orbital plane
View from above orbital plane
View from above satellite
View from above satellite

Ground track
Ground track

The orbit data is extracted from the following two-line orbital elements,

1    51U 60009C   21211.56103571 -.00000124  00000-0 -38133-3 0  9996
2    51  47.2116 164.8373 0109053 296.7646  62.2019 12.18277502713836
Epoch (UTC): 30 July 2021 13:27:53
Eccentricity: 0.0109053
inclination: 47.2116°
perigee height: 1513 km
apogee height: 1687 km
right ascension of ascending node: 164.8373°
argument of perigee: 296.7646°
revolutions per day: 12.18277502
mean anomaly at epoch: 62.2019°
orbit number at epoch: 71383

The dashed part of the orbit path shows where the satellite is in the earth's shadow,  

DLR